Regional Weather Roundup
Issued by NWS Northern Indiana

Home | Current Version | Previous Version | Graphics & Text | Print | Product List | Glossary On
Versions: 1 2 3 4 5 6 7 8 9 10 11 12 13 14 15 16 17 18 19 20 21 22 23 24 25 26 27 28 29 30 31 32 33 34 35 36 37 38 39 40 41 42 43 44 45 46 47 48 49 50
000
ASUS43 KIWX 270310
RWRIWX

KIWX WEATHER ROUNDUP
NATIONAL WEATHER SERVICE NORTHERN INDIANA
1100 PM EDT THU MAR 26 2015

NOTE: "FAIR" INDICATES FEW OR NO CLOUDS BELOW 12,000 FEET WITH NO
SIGNIFICANT WEATHER AND/OR OBSTRUCTIONS TO VISIBILITY.

* THESE STATIONS ARE NOT UNDER NWS QUALITY CONTROL. THEY ALSO MAY NOT
  REPORT WEATHER SUCH AS PRECIPITATION OR FOG.

INZ001>027-270400-
NORTHERN INDIANA

CITY           SKY/WX    TMP DP  RH WIND       PRES   REMARKS
GARY*          CLOUDY    37  23  56 NE14      30.05S
VALPARAISO     CLOUDY    33  24  69 N6        30.04S WCI  28
MICHIGAN CITY* CLOUDY    32  25  74 N6        30.05R WCI  26
LAPORTE*       CLOUDY    35  28  75 N8        30.03S WCI  28
KNOX*            N/A     32  18  55 N7        30.03R WCI  26
SOUTH BEND     CLOUDY    33  25  72 N7        30.03R WCI  27
GOSHEN         CLOUDY    33  24  69 NW9       30.00S WCI  25
MONTICELLO*    PTCLDY    33  26  75 N8        30.02S WCI  26
LOGANSPORT*    CLOUDY    34  27  75 N9        30.02S WCI  26
ROCHESTER*     PTCLDY    34  27  75 NW12      30.02R WCI  25
WARSAW*        CLEAR     32  25  74 NW8       30.01S WCI  25
ANGOLA*        CLOUDY    34  19  55 NW10      29.97S WCI  26
FORT WAYNE     PTCLDY    33  23  66 NW12      29.98S WCI  24
HUNTINGTON*    PTCLDY    33  21  61 N8        29.98S WCI  26
PERU/GRISSOM   MOCLDY    35  24  65 N14       29.99R WCI  25
MARION*        PTCLDY    34  25  71 N5        29.99S WCI  30

$$
INZ028>050-270400-
CENTRAL INDIANA

CITY           SKY/WX    TMP DP  RH WIND       PRES   REMARKS
LAFAYETTE      CLEAR     33  25  72 N8        30.02S WCI  26
KOKOMO*          N/A     36  27  69 N15       30.00R
MUNCIE*        MOCLDY    35  27  72 N7        29.98R WCI  29
INDIANAPOLIS   PTCLDY    36  28  73 NW10      29.98R

$$
MIZ043>046-050>051-056>058-064>065-071>073-077>080-270400-
SOUTHWEST LOWER MICHIGAN

CITY           SKY/WX    TMP DP  RH WIND       PRES   REMARKS
BATTLE CREEK   CLOUDY    32  24  72 NW10      29.98R WCI  24
BENTON HARBOR  CLOUDY    31  27  85 VRB3      30.03S
COLDWATER*     CLOUDY    32  23  68 NW9       29.97S WCI  25
HILLSDALE*     CLOUDY    33  20  57 NW15G21   29.94S WCI  23
HOLLAND        FLURRIES  31  23  72 N7        30.03R WCI  24
GRAND RAPIDS   FLURRIES  30  20  66 NW13      30.00R WCI  20
KALAMAZOO      CLOUDY    32  23  69 NW13      29.99S WCI  22
STURGIS*       CLOUDY    32  25  74 CALM      29.98F
THREE RIVERS*  CLOUDY    32  25  73 NW7       30.00S WCI  26

$$
OHZ001>008-015>018-024>025-270400-
NORTHWEST OHIO

CITY           SKY/WX    TMP DP  RH WIND       PRES   REMARKS
WAUSEON*       CLOUDY    36  25  64 NW10      29.95S
DEFIANCE       CLOUDY    36  24  62 NW9       29.97S
FINDLAY        MOCLDY    35  23  61 NW13      29.94R WCI  26
TOLEDO EXPRESS CLOUDY    35  22  58 NW10G18   29.95R WCI  27
TOLEDO METCALF CLOUDY    36  22  56 NW10      29.95S
LIMA           CLEAR     34  25  69 NW6       29.96R WCI  29

$$
AND FOR LAKE MICHIGAN COASTAL AND OPEN LAKE BUOY OBSERVATIONS

STATION/POSITION TEMP    WIND        PRES    VSBY  WAVE
                 AIR SEA DIR/SP/G                  HT/PER
                 (F)     (DEG/KT/KT) (MB)    (MI)  (FT/S)
CALUMET HARBOR    35     340/ 12/ 18 1016.5R
MICHIGAN CITY     33     350/ 11/ 12   N/A
BURNS HARBOR      35      30/ 12/ 13 1017.9S
SAINT JOSEPH      32     330/  7/  9 1017.6F

$$
&&



USA.gov is the U.S. government's official web portal to all federal, state and local government web resources and services.